When you browse on this site, cookies collect data to enhance your experience and personalize the content and advertising you see.
Visit our Privacy Policy to learn more. By continuing to use the site, you agree to this use of cookies and data.
  • în România
  • Lista ţărilor
  • Pe 7 zile
  • Temperatura apei
  • Hartă satelitară
  • Meteo pe hartă
  • Widget-uri
  • user-avatar
    Intrare

    Meteo pe oră la Aschbach

    Astăzi, 16 Iulie, Marţi

    Timp Temperatura Precipitaţii Vânt Presiune Umiditate
    00:00 +13°C° 0 mm 1 m/s 716 mmHg 94%
    01:00 +12°C° 0 mm 0 m/s 717 mmHg 95%
    02:00 +12°C° 0 mm 0 m/s 716 mmHg 95%
    03:00 +11°C° 0 mm 0 m/s 716 mmHg 95%
    04:00 +11°C° 0 mm 0 m/s 716 mmHg 96%
    05:00 +12°C° 0 mm 0 m/s 716 mmHg 95%
    06:00 +13°C° 0 mm 0 m/s 716 mmHg 94%
    07:00 +14°C° 0 mm 0 m/s 717 mmHg 92%
    08:00 +17°C° 0 mm 0 m/s 717 mmHg 83%
    09:00 +19°C° 0 mm 0 m/s 717 mmHg 75%
    10:00 +23°C° 0 mm 1 m/s 717 mmHg 66%
    11:00 +24°C° 0 mm 1 m/s 717 mmHg 59%
    12:00 +26°C° 0 mm 1 m/s 717 mmHg 52%
    13:00 +27°C° 0 mm 1 m/s 717 mmHg 44%
    14:00 +27°C° 0 mm 1 m/s 717 mmHg 43%
    15:00 +27°C° 0 mm 1 m/s 717 mmHg 41%
    16:00 +27°C° 0 mm 1 m/s 717 mmHg 39%
    17:00 +26°C° 0 mm 1 m/s 717 mmHg 48%
    18:00 +24°C° 0 mm 1 m/s 717 mmHg 57%
    19:00 +21°C° 0 mm 0 m/s 716 mmHg 65%
    20:00 +21°C° 0 mm 1 m/s 716 mmHg 70%
    21:00 +19°C° 0 mm 1 m/s 716 mmHg 75%
    22:00 +16°C° 0 mm 1 m/s 717 mmHg 80%
    23:00 +15°C° 0 mm 1 m/s 716 mmHg 82%

    Mâine, 17 Iulie, Miercuri

    Timp Temperatura Precipitaţii Vânt Presiune Umiditate
    00:00 +15°C° 0 mm 1 m/s 716 mmHg 83%
    01:00 +13°C° 0 mm 0 m/s 716 mmHg 84%
    02:00 +13°C° 0 mm 0 m/s 716 mmHg 85%
    03:00 +12°C° 0 mm 0 m/s 715 mmHg 86%
    04:00 +12°C° 0 mm 0 m/s 715 mmHg 87%
    05:00 +13°C° 0 mm 0 m/s 715 mmHg 83%
    06:00 +15°C° 0 mm 0 m/s 715 mmHg 80%
    07:00 +16°C° 0 mm 0 m/s 715 mmHg 76%
    08:00 +18°C° 0 mm 0 m/s 715 mmHg 69%
    09:00 +21°C° 0 mm 0 m/s 716 mmHg 62%
    10:00 +25°C° 0 mm 1 m/s 716 mmHg 55%
    11:00 +26°C° 0 mm 1 m/s 716 mmHg 50%
    12:00 +27°C° 0 mm 2 m/s 716 mmHg 45%
    13:00 +28°C° 0 mm 2 m/s 715 mmHg 40%
    14:00 +27°C° 0 mm 2 m/s 715 mmHg 40%
    15:00 +27°C° 0 mm 2 m/s 715 mmHg 40%
    16:00 +27°C° 0 mm 3 m/s 715 mmHg 39%
    17:00 +26°C° 0 mm 2 m/s 715 mmHg 48%
    18:00 +24°C° 0 mm 1 m/s 715 mmHg 57%
    19:00 +23°C° 0 mm 1 m/s 715 mmHg 66%
    20:00 +21°C° 0 mm 1 m/s 715 mmHg 68%
    21:00 +20°C° 0 mm 1 m/s 715 mmHg 71%
    22:00 +16°C° 0 mm 0 m/s 715 mmHg 74%
    23:00 +16°C° 0 mm 0 m/s 715 mmHg 74%

    Poimâine, 18 Iulie, Joi

    Timp Temperatura Precipitaţii Vânt Presiune Umiditate
    00:00 +16°C° 0 mm 1 m/s 715 mmHg 75%
    01:00 +16°C° 0 mm 1 m/s 714 mmHg 76%
    02:00 +15°C° 0 mm 1 m/s 714 mmHg 77%
    03:00 +15°C° 0 mm 1 m/s 714 mmHg 78%
    04:00 +15°C° 0 mm 1 m/s 714 mmHg 79%
    05:00 +15°C° 0 mm 0 m/s 714 mmHg 77%
    06:00 +16°C° 0 mm 0 m/s 714 mmHg 75%
    07:00 +17°C° 0 mm 0 m/s 714 mmHg 72%
    08:00 +20°C° 0 mm 1 m/s 715 mmHg 65%
    09:00 +22°C° 0 mm 1 m/s 715 mmHg 58%
    10:00 +24°C° 0 mm 2 m/s 715 mmHg 51%
    11:00 +25°C° 0 mm 2 m/s 715 mmHg 47%
    12:00 +26°C° 0 mm 3 m/s 715 mmHg 43%
    13:00 +27°C° 0 mm 3 m/s 715 mmHg 39%
    14:00 +27°C° 0 mm 3 m/s 715 mmHg 39%
    15:00 +27°C° 0 mm 3 m/s 715 mmHg 40%
    16:00 +27°C° 0 mm 3 m/s 715 mmHg 41%
    17:00 +25°C° 0 mm 2 m/s 715 mmHg 49%
    18:00 +24°C° 0 mm 2 m/s 715 mmHg 58%
    19:00 +22°C° 0 mm 1 m/s 715 mmHg 67%
    20:00 +21°C° 0.1 mm 1 m/s 715 mmHg 72%
    21:00 +19°C° 0.1 mm 1 m/s 715 mmHg 77%
    22:00 +16°C° 0.1 mm 1 m/s 715 mmHg 81%
    23:00 +16°C° 0 mm 1 m/s 715 mmHg 82%

    19 Iulie, Vineri

    Timp Temperatura Precipitaţii Vânt Presiune Umiditate
    00:00 +16°C° 0 mm 1 m/s 715 mmHg 83%
    01:00 +16°C° 0 mm 1 m/s 715 mmHg 84%
    02:00 +15°C° 0 mm 1 m/s 715 mmHg 86%
    03:00 +15°C° 0 mm 1 m/s 715 mmHg 87%
    04:00 +13°C° 0 mm 0 m/s 715 mmHg 88%
    05:00 +14°C° 0 mm 0 m/s 715 mmHg 86%
    06:00 +15°C° 0 mm 0 m/s 716 mmHg 83%
    07:00 +17°C° 0 mm 0 m/s 716 mmHg 81%
    08:00 +19°C° 0 mm 0 m/s 716 mmHg 73%
    09:00 +23°C° 0 mm 1 m/s 716 mmHg 64%
    10:00 +25°C° 0 mm 1 m/s 717 mmHg 56%
    11:00 +26°C° 0 mm 1 m/s 716 mmHg 52%
    12:00 +27°C° 0 mm 1 m/s 716 mmHg 48%
    13:00 +28°C° 0 mm 1 m/s 716 mmHg 43%
    14:00 +28°C° 0 mm 1 m/s 716 mmHg 43%
    15:00 +28°C° 0 mm 1 m/s 716 mmHg 43%
    16:00 +28°C° 0 mm 1 m/s 716 mmHg 43%
    17:00 +26°C° 0 mm 1 m/s 716 mmHg 51%
    18:00 +25°C° 0 mm 1 m/s 716 mmHg 60%
    19:00 +24°C° 0 mm 1 m/s 716 mmHg 69%
    20:00 +22°C° 0 mm 1 m/s 716 mmHg 74%
    21:00 +20°C° 0 mm 1 m/s 716 mmHg 79%
    22:00 +16°C° 0 mm 0 m/s 716 mmHg 85%
    23:00 +18°C° 0 mm 1 m/s 716 mmHg 87%

    20 Iulie, Sâmbătă

    Timp Temperatura Precipitaţii Vânt Presiune Umiditate
    00:00 +16°C° 0 mm 1 m/s 716 mmHg 88%
    01:00 +16°C° 0 mm 1 m/s 716 mmHg 90%
    02:00 +14°C° 0 mm 0 m/s 716 mmHg 90%
    03:00 +14°C° 0 mm 0 m/s 715 mmHg 90%
    04:00 +14°C° 0 mm 0 m/s 715 mmHg 91%
    05:00 +15°C° 0 mm 0 m/s 715 mmHg 88%
    06:00 +16°C° 0 mm 0 m/s 715 mmHg 85%
    07:00 +17°C° 0 mm 0 m/s 716 mmHg 82%
    08:00 +20°C° 0 mm 0 m/s 716 mmHg 73%
    09:00 +23°C° 0 mm 0 m/s 716 mmHg 64%
    10:00 +26°C° 0 mm 0 m/s 716 mmHg 55%
    11:00 +29°C° 0 mm 1 m/s 716 mmHg 50%
    12:00 +29°C° 0 mm 1 m/s 716 mmHg 46%
    13:00 +30°C° 0 mm 1 m/s 716 mmHg 42%
    14:00 +29°C° 0.2 mm 2 m/s 716 mmHg 46%
    15:00 +28°C° 0.2 mm 2 m/s 716 mmHg 50%
    16:00 +27°C° 0.2 mm 3 m/s 716 mmHg 54%
    17:00 +24°C° 4.9 mm 2 m/s 716 mmHg 68%
    18:00 +20°C° 4.9 mm 2 m/s 716 mmHg 82%
    19:00 +18°C° 4.9 mm 1 m/s 716 mmHg 96%
    20:00 +18°C° 0.3 mm 1 m/s 716 mmHg 95%
    21:00 +18°C° 0.3 mm 1 m/s 717 mmHg 94%
    22:00 +16°C° 0.3 mm 1 m/s 717 mmHg 93%
    23:00 +16°C° 0.2 mm 1 m/s 717 mmHg 92%

    21 Iulie, Duminică

    Timp Temperatura Precipitaţii Vânt Presiune Umiditate
    00:00 +16°C° 0.2 mm 1 m/s 717 mmHg 92%
    01:00 +16°C° 0.2 mm 1 m/s 717 mmHg 92%
    02:00 +15°C° 0.1 mm 1 m/s 717 mmHg 92%
    03:00 +15°C° 0.1 mm 1 m/s 717 mmHg 92%
    04:00 +14°C° 0.1 mm 0 m/s 717 mmHg 93%
    05:00 +16°C° 0 mm 1 m/s 718 mmHg 92%
    06:00 +16°C° 0 mm 1 m/s 718 mmHg 91%
    07:00 +18°C° 0 mm 1 m/s 718 mmHg 91%
    08:00 +20°C° 0.1 mm 1 m/s 719 mmHg 85%
    09:00 +20°C° 0.1 mm 2 m/s 719 mmHg 79%
    10:00 +23°C° 0.1 mm 2 m/s 719 mmHg 72%
    11:00 +24°C° 0.4 mm 2 m/s 719 mmHg 69%
    12:00 +25°C° 0.4 mm 2 m/s 719 mmHg 65%
    13:00 +26°C° 0.4 mm 2 m/s 720 mmHg 61%
    14:00 +26°C° 0.2 mm 2 m/s 720 mmHg 58%
    15:00 +26°C° 0.2 mm 2 m/s 720 mmHg 56%
    16:00 +27°C° 0.2 mm 2 m/s 720 mmHg 53%
    17:00 +26°C° 0.1 mm 1 m/s 720 mmHg 60%
    18:00 +24°C° 0.1 mm 1 m/s 720 mmHg 67%
    19:00 +23°C° 0.1 mm 1 m/s 720 mmHg 75%
    20:00 +22°C° 0 mm 1 m/s 721 mmHg 78%
    21:00 +20°C° 0 mm 1 m/s 721 mmHg 82%
    22:00 +18°C° 0 mm 1 m/s 721 mmHg 86%
    23:00 +18°C° 0 mm 1 m/s 721 mmHg 88%
    Arată mai mult